Regional Weather Roundup
Issued by NWS Albany, NY

Home | Current Version | Previous Version | Text Only | Print | Product List | Glossary On
Versions: 1 2 3 4 5 6 7 8 9 10 11 12 13 14 15 16 17 18 19 20 21 22 23 24 25 26 27
000
ASUS41 KALY 220810
RWRALY

NEW YORK STATE HOURLY WEATHER ROUNDUP
NATIONAL WEATHER SERVICE ALBANY NY
400 AM EDT SUN OCT 22 2017

NOTE: "FAIR" INDICATES FEW OR NO CLOUDS BELOW 12,000 FEET WITH NO
SIGNIFICANT WEATHER AND/OR NO OBSTRUCTIONS TO VISIBILITY.

NYZ032-033-038>043-046>054-057>066-NYZ062>081-082-084-220900-
EAST


CITY           SKY/WX    TMP DP  RH WIND       PRES   REMARKS
ALBANY         CLOUDY    46  42  86 CALM      30.36S
GLENS FALLS    CLOUDY    40  39  97 CALM      30.35R
POUGHKEEPSIE   PTCLDY    42  40  92 CALM      30.35S
NEWBURGH       CLEAR     52  45  76 W5        30.36S
MONTGOMERY     CLOUDY    44  42  93 CALM      30.35S
WHITE PLAINS   CLEAR     51  46  83 NW5       30.35R
ISLIP          CLEAR     50  49  96 N3        30.35S
NEW YORK CITY  PTCLDY    61  47  59 CALM      30.35R
CENTRAL PARK   CLEAR     62  45  53 CALM      30.38R
$$

NYZ005>009-017-018-044>046-055-056-220900-
CENTRAL


CITY           SKY/WX    TMP DP  RH WIND       PRES   REMARKS
FULTON         CLEAR     52  47  83 SE3       30.28S
SYRACUSE       PTCLDY    44  42  93 E3        30.30S
ROME           CLEAR     43  41  93 SE5       30.35R
ELMIRA         CLEAR     42  41  96 CALM      30.33R
BINGHAMTON     CLEAR     54  39  57 S5        30.34S
MONTICELLO     CLOUDY    44  40  85 N6        30.38S
$$

NYZ026>034-041>043-087-220900-
NORTH


CITY           SKY/WX    TMP DP  RH WIND       PRES   REMARKS
WATERTOWN      CLEAR     41  40  96 CALM      30.27S
FORT DRUM      NOT AVBL
OGDENSBURG     FAIR      42  41  97 CALM      30.28S
MASSENA        CLEAR     44  43  96 CALM      30.30S
SARANAC LAKE   CLEAR     32  32 100 CALM      30.34S
PLATTSBURGH    PTCLDY    46  44  93 CALM      30.32S
$$

NYZ001>004-010>016-019>021-085-220900-
WEST


CITY           SKY/WX    TMP DP  RH WIND       PRES   REMARKS
NIAGARA FALLS  CLEAR     51  43  74 CALM      30.24R
BUFFALO        PTCLDY    56  43  61 S5        30.25S
DUNKIRK        CLEAR     63  48  58 SW8       30.24R
JAMESTOWN      PTCLDY    54  44  69 S7        30.29S
WELLSVILLE     CLEAR     59  40  49 VRB5      30.32F
ROCHESTER      PTCLDY    48  46  93 CALM      30.27R
PENN YAN       CLEAR     53  42  66 SW3       30.30S
$$

             KEY
       WCI = WIND CHILL INDEX
       VSB = VISIBILITY
       HX  = HEAT INDEX
$$




USA.gov is the U.S. government's official web portal to all federal, state and local government web resources and services.